Weather in Horlivka

Ukraine / Donetsk Region     48°18′21″N   38°00′09″E
temp.,
°C
wind,
m/s
gust,
m/s
humid.,
%
clouds,
%
prec.,
mm/h
press.,
hPa
HPBL,
m
14 june, mon
mon1400:00+17s228221 0.0 101130
03:00+16s228617 0.0 101126
06:00+17se22835 0.0 101281
09:00+22sse2365100 0.0 1012648
12:00+24se3352100 0.0 10131453
15:00+26se224734 0.0 10131984
18:00+25ese235327 0.0 1012668
21:00+21ne246296 0.0 1012106
15 june, tue
tue1500:00+21ne2568100 0.0 1012114
03:00+20nne2573100 0.0 1011121
06:00+19ne3777100 0.0 1011188
09:00+21ne357178 0.0 1011314
12:00+27e224458 0.0 10102198
15:00+25sse2355100 0.0 1010686
18:00+25e1260100 0.1 1009537
21:00+20sw127691 0.4 101048
16 june, wed
wed1600:00+19se22774 0.2 101017
03:00+18sse11831 0.3 101011
06:00+19e008296 0.1 101146
09:00+23se2366100 0.1 1011670
12:00+26ese235562 0.2 10111337
15:00+27e4550100 0.2 10101631
18:00+25ene2564100 0.3 1010424
21:00+22ene51180100 1.2 1011244
17 june, thu
thu1700:00+20nw3490100 2.5 1012110
03:00+19ne61490100 5.9 1012397
06:00+20ene61580100 0.0 1013459
09:00+23ene61275100 0.4 1014594
12:00+25ene6967100 0.1 1014957
15:00+24ene71077100 3.8 10141100
18:00+22ene61384100 11.3 1014561
21:00+18sse3695100 16.9 1017259
18 june, fri
fri1800:00+18nne3695100 3.8 1017178
03:00+17ene6148887 4.5 1017609
06:00+16ene6128965 0.0 1019496
09:00+17e61078100 0.0 1020562
12:00+19e5107399 0.0 1021685
15:00+21e586399 0.0 1021827
18:00+22ene59625 0.0 10211265
21:00+18ene411750 0.0 1022348